Location: Fort Worth, Tx
(32.7431°N, 97.3695°W)
Time: 09:58:49
(UTC-05:00)

Altair - All Passes

Search period start: 27 January 2023 00:00
Search period end: 06 February 2023 00:00
Orbit: 1501 x 1683 km, 47.2° (Epoch: 26 January)

Date Brightness Start Highest point End Pass type
(mag) Time Alt. Az. Time Alt. Az. Time Alt. Az.
27 Jan - 01:02:39 10° WNW 01:11:39 36° N 01:20:49 10° ENE night (unlit)
27 Jan - 03:09:24 10° NW 03:18:56 43° NNE 03:28:25 10° E visible
27 Jan - 05:14:31 10° NW 05:24:46 87° SW 05:34:47 10° SE visible
27 Jan - 07:21:02 10° WNW 07:28:39 25° SW 07:36:10 10° S visible
27 Jan - 20:26:33 10° SSW 20:35:18 41° SE 20:44:21 10° ENE visible
27 Jan - 22:30:04 10° WSW 22:39:46 68° NNW 22:49:50 10° NE visible
28 Jan - 00:37:13 10° WNW 00:46:15 37° N 00:55:27 10° NE visible
28 Jan - 02:44:07 10° NW 02:53:33 41° NNE 03:02:59 10° E visible
28 Jan - 04:49:16 10° NW 04:59:32 87° NE 05:09:35 10° SE visible
28 Jan - 06:55:28 10° WNW 07:03:33 28° SW 07:11:31 10° S visible
28 Jan - 20:01:41 10° SSW 20:10:11 37° SE 20:18:57 10° ENE visible
28 Jan - 22:04:48 10° WSW 22:14:30 72° NW 22:24:35 10° NE visible
29 Jan - 00:11:48 10° WNW 00:20:50 37° N 00:30:05 10° NE visible
29 Jan - 02:18:49 10° NW 02:28:10 40° NNE 02:37:32 10° E visible
29 Jan - 04:24:02 10° NW 04:34:16 82° NE 04:44:22 10° SE visible
29 Jan - 06:29:58 10° WNW 06:38:26 31° SW 06:46:46 10° S visible
29 Jan - 19:36:53 10° S 19:45:04 34° SE 19:53:32 10° ENE visible
29 Jan - 21:39:33 10° WSW 21:49:14 77° NW 21:59:20 10° NE visible
29 Jan - 23:46:23 10° W 23:55:26 38° NNW 00:04:44 10° NE visible
30 Jan - 01:53:30 10° NW 02:02:46 39° NNE 02:12:05 10° E night (unlit)
30 Jan - 03:58:47 10° NW 04:09:01 77° NE 04:19:07 10° ESE visible
30 Jan - 06:04:32 10° WNW 06:13:18 35° SW 06:21:57 10° S visible
30 Jan - 19:12:07 10° S 19:19:58 30° SE 19:28:04 10° ENE visible
30 Jan - 21:14:20 10° SW 21:24:00 82° NW 21:34:05 10° NE visible
30 Jan - 23:20:58 10° W 23:30:03 40° NNW 23:39:24 10° NE visible
31 Jan - 01:28:11 10° NW 01:37:22 38° NNE 01:46:37 10° ENE night (unlit)
31 Jan - 03:33:34 10° NW 03:43:45 72° NE 03:53:50 10° ESE visible
31 Jan - 05:39:07 10° WNW 05:48:11 38° SW 05:57:07 10° SSE visible
31 Jan - 18:47:25 10° S 18:54:53 27° SE 19:02:33 10° ENE daylight
31 Jan - 20:49:09 10° SW 20:58:46 87° NW 21:08:49 10° NE visible
31 Jan - 22:55:34 10° W 23:04:41 41° NNW 23:14:04 10° NE visible
01 Feb - 01:02:53 10° NW 01:11:58 37° N 01:21:10 10° ENE visible
01 Feb - 03:08:20 10° NW 03:18:28 68° NNE 03:28:32 10° ESE visible
01 Feb - 05:13:43 10° WNW 05:23:02 42° SW 05:32:13 10° SSE visible
01 Feb - 18:22:46 10° S 18:29:48 24° SE 18:36:59 10° ENE daylight
01 Feb - 20:23:59 10° SW 20:33:34 87° SE 20:43:34 10° NE visible
01 Feb - 22:30:10 10° W 22:39:18 42° NNW 22:48:45 10° NE visible
02 Feb - 00:37:33 10° WNW 00:46:33 36° N 00:55:42 10° ENE visible
02 Feb - 02:43:05 10° NW 02:53:10 64° NNE 03:03:13 10° ESE visible
02 Feb - 04:48:23 10° WNW 04:57:52 47° SW 05:07:17 10° SSE visible
02 Feb - 17:58:14 10° SSE 18:04:43 21° SE 18:11:21 10° E daylight
02 Feb - 19:58:51 10° SW 20:08:22 81° SE 20:18:19 10° NE visible
02 Feb - 22:04:47 10° W 22:13:57 44° NNW 22:23:27 10° NE visible
03 Feb - 00:12:12 10° WNW 00:21:08 35° N 00:30:14 10° ENE visible
03 Feb - 02:17:52 10° NW 02:27:52 60° NNE 02:37:52 10° ESE night (unlit)
03 Feb - 04:23:02 10° WNW 04:32:42 51° SW 04:42:17 10° SSE visible
03 Feb - 17:33:47 10° SSE 17:39:39 18° ESE 17:45:38 10° E daylight
03 Feb - 19:33:45 10° SW 19:43:11 75° SE 19:53:03 10° NE visible
03 Feb - 21:39:24 10° W 21:48:36 46° NNW 21:58:09 10° NE visible
03 Feb - 23:46:51 10° WNW 23:55:43 35° N 00:04:47 10° ENE visible
04 Feb - 01:52:38 10° NW 02:02:33 57° NNE 02:12:30 10° ESE night (unlit)
04 Feb - 03:57:43 10° WNW 04:07:32 56° SW 04:17:16 10° SSE visible
04 Feb - 06:08:16 10° WSW 06:10:54 11° WSW 06:13:32 10° SW visible
04 Feb - 17:09:29 10° SSE 17:14:35 16° ESE 17:19:46 10° E daylight
04 Feb - 19:08:40 10° SW 19:18:00 70° SE 19:27:46 10° NE visible
04 Feb - 21:14:02 10° W 21:23:16 48° NNW 21:32:53 10° NE visible
04 Feb - 23:21:29 10° WNW 23:30:19 35° N 23:39:20 10° ENE visible
05 Feb - 01:27:24 10° NW 01:37:13 54° NNE 01:47:07 10° ESE night (unlit)
05 Feb - 03:32:26 10° WNW 03:42:21 61° SW 03:52:13 10° SSE visible
05 Feb - 05:41:33 10° W 05:45:49 13° WSW 05:50:04 10° SSW visible
05 Feb - 16:45:25 10° SSE 16:49:32 14° ESE 16:53:40 10° E daylight
05 Feb - 18:43:36 10° SW 18:52:51 64° SE 19:02:29 10° ENE daylight
05 Feb - 20:48:40 10° W 20:57:57 51° NNW 21:07:36 10° NE visible
05 Feb - 22:56:07 10° WNW 23:04:54 35° N 23:13:54 10° ENE visible
